This is the latest recevied weather packets stored in our database for station/object WV8BRW. If no packets are shown the sender has not sent any weather packets the latest 10 day(s).
| Time | Temp. | Humidity | Pressure | Rain* | Wind** | Luminosity | Snow |
|---|---|---|---|---|---|---|---|
| 1777830826 | 15.56° C | 38% | 1017.3 hPa | 0 mm | - | 788 W/m² | - |
| 1777830521 | 15.56° C | 41% | 1017.6 hPa | 0 mm | - | 786 W/m² | - |
| 1777830219 | 15.56° C | 41% | 1017.8 hPa | 0 mm | - | 786 W/m² | - |
| 1777829914 | 15° C | 42% | 1018 hPa | 0 mm | - | 782 W/m² | - |
| 1777829611 | 14.44° C | 43% | 1017.8 hPa | 0 mm | - | 809 W/m² | - |
| 1777829308 | 15° C | 40% | 1017.6 hPa | 0 mm | - | 197 W/m² | - |
| 1777829006 | 15° C | 42% | 1017.8 hPa | 0 mm | - | 797 W/m² | - |
| 1777828701 | 15° C | 43% | 1017.8 hPa | 0 mm | - | 791 W/m² | - |
| 1777828398 | 15° C | 44% | 1018.1 hPa | 0 mm | - | 793 W/m² | - |
| 1777828096 | 15° C | 45% | 1018.3 hPa | 0 mm | - | 789 W/m² | - |
| 1777827792 | 15° C | 47% | 1018.1 hPa | 0 mm | - | 780 W/m² | - |
| 1777827489 | 15° C | 44% | 1018.4 hPa | 0 mm | - | 787 W/m² | - |
| 1777827187 | 15° C | 43% | 1018.3 hPa | 0 mm | - | 784 W/m² | - |
| 1777826882 | 15° C | 47% | 1018.6 hPa | 0 mm | - | 763 W/m² | - |
| 1777826580 | 15° C | 44% | 1018.5 hPa | 0 mm | - | 752 W/m² | - |
| 1777826276 | 13.89° C | 50% | 1018.6 hPa | 0 mm | - | 750 W/m² | - |
| 1777825974 | 13.89° C | 44% | 1018.7 hPa | 0 mm | - | 751 W/m² | - |
| 1777825670 | 13.33° C | 47% | 1018.6 hPa | 0 mm | - | 723 W/m² | - |
| 1777825369 | 13.89° C | 42% | 1018.7 hPa | 0 mm | - | 699 W/m² | - |
| 1777825065 | 13.89° C | 46% | 1018.9 hPa | 0 mm | - | 698 W/m² | - |
| 1777824761 | 13.89° C | 45% | 1018.6 hPa | 0 mm | - | 668 W/m² | - |
| 1777824459 | 13.33° C | 43% | 1018.9 hPa | 0 mm | - | 652 W/m² | - |
| 1777824154 | 13.33° C | 47% | 1019.1 hPa | 0 mm | - | 690 W/m² | - |
| 1777823850 | 13.33° C | 45% | 1019.1 hPa | 0 mm | - | 669 W/m² | - |
| 1777823548 | 13.33° C | 46% | 1018.9 hPa | 0 mm | - | 674 W/m² | - |
* Rain latest hour (hover to see other rain measurements)
** Current wind speed in m/s (hover to see current wind gust speed)